Location: Great Snoring
(52.8667°N, 0.8833°E)
Time: 16:40:25
(UTC+00:00)

Cosmos 1538 Rocket - Pass Details

Date: 19 May 2025
Orbit: 749 x 787 km, 74.0° (Epoch: 13 June)

Event Time Altitude Azimuth Distance (km) Brightness Sun altitude
Exits shadow 22:50:39 26° 158° (SSE) 1,447 4.8 -15.9°
Maximum altitude 22:53:00 42° 106° (ESE) 1,063 4.5 -16.0°
Drops below altitude 10° 22:57:51 10° 36° (NE) 2,281 7.0 -16.2°
Sets 23:00:18 0° 30° (NNE) 3,210 8.0 -16.3°
